This is the latest recevied weather packets stored in our database for station/object F4GCF-13. If no packets are shown the sender has not sent any weather packets the latest 10 day(s).
| Time | Temp. | Humidity | Pressure | Rain* | Wind** | Luminosity | Snow |
|---|---|---|---|---|---|---|---|
| 1778064936 | 14.44° C | 83% | 1014 hPa | 1.27 mm | - | - | - |
| 1778063739 | 13.89° C | 81% | 1014 hPa | 1.27 mm | - | - | - |
| 1778062537 | 15° C | 78% | 1014 hPa | 0 mm | - | - | - |
| 1778061936 | 16.11° C | 80% | 1014 hPa | 0 mm | - | - | - |
| 1778061638 | 15.56° C | 80% | 1014 hPa | 0 mm | - | - | - |
| 1778061337 | 15° C | 81% | 1014 hPa | 0 mm | - | - | - |
| 1778060440 | 15° C | 82% | 1014 hPa | 0 mm | - | - | - |
| 1778060143 | 14.44° C | 82% | 1014 hPa | 0 mm | - | - | - |
| 1778059536 | 14.44° C | 82% | 1014 hPa | 0 mm | - | - | - |
| 1778058638 | 14.44° C | 81% | 1014 hPa | 0 mm | - | - | - |
| 1778058339 | 15° C | 81% | 1014 hPa | 0 mm | - | - | - |
| 1778057742 | 15° C | 82% | 1014 hPa | 0 mm | - | - | - |
| 1778057436 | 15° C | 82% | 1014 hPa | 0 mm | - | - | - |
| 1778057141 | 15° C | 83% | 1014 hPa | 0 mm | - | - | - |
| 1778056538 | 15° C | 84% | 1013 hPa | 0 mm | - | - | - |
| 1778056239 | 14.44° C | 84% | 1013 hPa | 0 mm | - | - | - |
| 1778055638 | 14.44° C | 84% | 1014 hPa | 0 mm | - | - | - |
| 1778055041 | 15° C | 87% | 1014 hPa | 0 mm | - | - | - |
| 1778054770 | 14.44° C | 87% | 1014 hPa | 0 mm | - | - | - |
| 1778054736 | 14.44° C | 87% | 1014 hPa | 0 mm | - | - | - |
| 1778054439 | 14.44° C | 88% | 1014 hPa | 0 mm | - | - | - |
| 1778054143 | 14.44° C | 89% | 1014 hPa | 0 mm | - | - | - |
| 1778053849 | 14.44° C | 90% | 1014 hPa | 0 mm | - | - | - |
| 1778053239 | 12.78° C | 91% | 1014 hPa | 0 mm | - | - | - |
| 1778052340 | 12.78° C | 91% | 1014 hPa | 0 mm | - | - | - |
* Rain latest hour (hover to see other rain measurements)
** Current wind speed in m/s (hover to see current wind gust speed)